Fresno, CA

9:18 PM PDT on June 19, 2018 (GMT -0700)
Fresno Yosemite International

Weather History for KFAT - October, 2017

Change the Weather History Date:

Wednesday, October 11, 2017

  Actual Average Record
Temperature  
Mean Temperature 65 °F 68 °F  
Max Temperature 79 °F 82 °F 97 °F (1950)
Min Temperature 51 °F 55 °F 38 °F (1893)
Degree Days  
Heating Degree Days 0    
Month to date heating degree days 6  
Since 1 July heating degree days 10  
Cooling Degree Days 0    
Month to date cooling degree days 23  
Year to date cooling degree days 2437  
Growing Degree Days 15 (Base 50)    
Moisture  
Dew Point 37 °F    
Average Humidity 41    
Maximum Humidity 63    
Minimum Humidity 19    
Precipitation  
Precipitation 0.00 in 0.01 in 0.57 in (1904)
Month to date precipitation 0.00 0.13  
Year to date precipitation 12.80 8.16  
Snow  
Snow 0.00 in - - ()
Month to date snowfall 0.0  
Since 1 July snowfall 0.0  
Since 1 September snowfall 0.0  
Snow Depth 0.00 in    
Sea Level Pressure  
Sea Level Pressure 29.89 in    
Wind  
Wind Speed 9 mph (NW)    
Max Wind Speed 22 mph    
Max Gust Speed 26 mph    
Visibility 7 miles    
Events      
T = Trace of Precipitation, MM = Missing Value Source: NWS Daily Summary

Daily Weather History Graph

Daily Weather History Graph

Search for Another Location

Airport or City:

Astronomy

Oct. 11, 2017 Rise Set
Actual Time 7:03 AM PDT 6:27 PM PDT
Civil Twilight 6:37 AM PDT 6:53 PM PDT
Nautical Twilight 6:07 AM PDT 7:23 PM PDT
Astronomical Twilight 5:37 AM PDT 7:53 PM PDT
Moon 11:41 PM PDT (10/11) 1:18 PM PDT (10/11)
Length of Visible Light 12h 16m
Length of Day
11h 24m
Waning Gibbous, 58% of the Moon is Illuminated
Oct 11
Waning Gibbous
Oct 12
Last Quarter
Oct 19
New
Oct 27
First Quarter
Nov 3
Full

Hourly Weather History & Observations

Time (PDT) Temp. Dew Point Humidity Pressure Visibility Wind Dir Wind Speed Gust Speed Precip Events Conditions
12:53 AM 60.1 °F 36.0 °F 41% 29.85 in 10.0 mi Calm Calm - N/A   Partly Cloudy
1:53 AM 60.1 °F 36.0 °F 41% 29.85 in 10.0 mi Calm Calm - N/A   Clear
2:53 AM 57.9 °F 39.9 °F 51% 29.85 in 10.0 mi Calm Calm - N/A   Clear
3:53 AM 55.9 °F 39.0 °F 53% 29.85 in 10.0 mi NNW 4.6 mph - N/A   Clear
4:53 AM 55.0 °F 39.0 °F 55% 29.85 in 10.0 mi NNW 4.6 mph - N/A   Clear
5:53 AM 54.0 °F 37.9 °F 55% 29.85 in 10.0 mi Calm Calm - N/A   Clear
6:53 AM 52.0 °F 39.0 °F 61% 29.86 in 10.0 mi West 5.8 mph - N/A   Clear
7:53 AM 54.0 °F 39.9 °F 59% 29.88 in 8.0 mi West 5.8 mph - N/A   Clear
8:53 AM 59.0 °F 37.9 °F 46% 29.90 in 8.0 mi NW 4.6 mph - N/A   Scattered Clouds
9:53 AM 63.0 °F 37.9 °F 40% 29.91 in 8.0 mi WNW 3.5 mph - N/A   Scattered Clouds
10:53 AM 68.0 °F 37.0 °F 32% 29.92 in 7.0 mi NNW 4.6 mph - N/A   Scattered Clouds
11:53 AM 72.0 °F 33.1 °F 24% 29.92 in 8.0 mi WNW 6.9 mph - N/A   Partly Cloudy
12:53 PM 75.9 °F 30.9 °F 19% 29.91 in 5.0 mi NW 10.4 mph - N/A   Haze
1:53 PM 78.1 °F 37.9 °F 24% 29.88 in 2.0 mi WNW 12.7 mph - N/A   Haze
2:53 PM 79.0 °F 39.0 °F 24% 29.88 in 2.0 mi WNW 13.8 mph 19.6 mph N/A   Haze
3:53 PM 77.0 °F 39.9 °F 26% 29.88 in 2.0 mi NW 17.3 mph - N/A   Haze
4:26 PM 77.0 °F 39.9 °F 26% 29.88 in 3.0 mi WNW 18.4 mph - N/A   Haze
4:53 PM 75.9 °F 41.0 °F 29% 29.88 in 3.0 mi WNW 19.6 mph - N/A   Haze
5:53 PM 72.0 °F 43.0 °F 35% 29.88 in 2.0 mi NW 16.1 mph - N/A   Haze
6:53 PM 69.1 °F 39.0 °F 33% 29.90 in 2.0 mi NW 13.8 mph - N/A   Haze
7:02 PM 69.1 °F 37.0 °F 31% 29.90 in 3.0 mi NW 13.8 mph - N/A   Haze
7:53 PM 66.9 °F 37.0 °F 33% 29.91 in 5.0 mi WNW 15.0 mph - N/A   Haze
8:53 PM 66.0 °F 32.0 °F 28% 29.92 in 8.0 mi NW 12.7 mph - N/A   Scattered Clouds
9:53 PM 63.0 °F 28.0 °F 27% 29.94 in 9.0 mi WNW 10.4 mph - N/A   Clear
10:53 PM 59.0 °F 28.9 °F 32% 29.96 in 9.0 mi WNW 10.4 mph - N/A   Clear
11:53 PM 57.0 °F 28.9 °F 34% 29.97 in 7.0 mi WNW 8.1 mph - N/A   Clear